DW4360 Weather Reports


Display with metric or nautical units.
time (UTC)temp
F
wind
direction
speed
MPH
gust
MPH
rain 1hr
in
rain 24hr
in
rain mn
in
humidity
%
barometer
mb
20260510223859 72 319 3.0 0.0 0.00 0.00 0.00 51 1018.6
20260510221857 74 309 0.0 0.0 0.00 0.00 0.00 49 1018.6
20260510220856 73 92 0.0 0.0 0.00 0.00 0.00 49 1018.5
20260510215855 72 327 2.0 0.0 0.00 0.00 0.00 52 1018.5
20260510214854 73 329 0.0 0.0 0.00 0.00 0.00 49 1018.6
20260510213853 73 313 0.0 0.0 0.00 0.00 0.00 52 1018.7
20260510212852 72 121 0.0 0.0 0.00 0.00 0.00 53 1018.7
20260510211851 71 317 0.0 0.0 0.00 0.00 0.00 55 1018.7
20260510205849 69 339 0.0 0.0 0.00 0.00 0.00 60 1018.6
20260510203847 70 360 0.0 0.0 0.00 0.00 0.00 57 1018.8
20260510202846 70 63 0.0 0.0 0.00 0.00 0.00 58 1018.6
20260510201845 69 302 5.0 0.0 0.00 0.00 0.00 60 1018.6
20260510200843 68 316 0.0 0.0 0.00 0.00 0.00 62 1018.4
20260510195843 66 325 0.0 0.0 0.00 0.00 0.00 67 1018.6
20260510193841 65 309 0.0 0.0 0.00 0.00 0.00 67 1018.7
20260510191838 66 245 0.0 0.0 0.00 0.00 0.00 64 1018.5
20260510185836 67 245 0.0 0.0 0.00 0.00 0.00 61 1018.4
20260510182833 65 159 5.0 0.0 0.00 0.00 0.00 67 1018.3
20260510181832 64 205 3.0 0.0 0.00 0.00 0.00 71 1018.2
20260510180831 63 202 0.0 0.0 0.00 0.00 0.00 71 1018.2
20260510175830 62 200 0.0 0.0 0.00 0.00 0.00 72 1018.3
20260510174829 62 221 0.0 0.0 0.00 0.00 0.00 73 1018.3
20260510173829 62 259 0.0 0.0 0.00 0.00 0.00 72 1018.2
20260510171826 62 200 3.0 0.0 0.00 0.00 0.00 74 1018.0
20260510170825 61 196 0.0 0.0 0.00 0.00 0.00 75 1017.9
20260510165825 60 261 0.0 0.0 0.00 0.00 0.00 75 1017.7
20260510164824 60 261 0.0 0.0 0.00 0.00 0.00 76 1017.7
20260510163822 59 261 0.0 0.0 0.00 0.00 0.00 77 1017.8
20260510162822 58 266 0.0 0.0 0.00 0.00 0.00 77 1017.9
20260510161821 58 355 0.0 0.0 0.00 0.00 0.00 75 1017.8
20260510155818 57 41 0.0 0.0 0.00 0.00 0.00 78 1017.8
20260510152815 56 330 0.0 0.0 0.00 0.00 0.00 79 1017.5
20260510151814 56 331 0.0 0.0 0.00 0.00 0.00 79 1017.4
20260510145812 56 320 0.0 0.0 0.00 0.00 0.00 81 1017.4
20260510144811 56 326 0.0 0.0 0.00 0.00 0.00 81 1017.3
20260510142809 55 329 0.0 0.0 0.00 0.00 0.00 83 1017.1
20260510141808 55 329 0.0 0.0 0.00 0.00 0.00 83 1016.9
20260510140807 55 329 0.0 0.0 0.00 0.00 0.00 83 1016.7
20260510135806 55 329 0.0 0.0 0.00 0.00 0.00 85 1017.0
20260510133804 55 329 0.0 0.0 0.00 0.00 0.00 85 1016.7
20260510132803 55 329 0.0 0.0 0.00 0.00 0.00 85 1016.4
20260510131802 55 329 0.0 0.0 0.00 0.00 0.00 85 1016.5
20260510125800 55 329 0.0 0.0 0.00 0.00 0.00 84 1016.4
20260510124759 55 329 0.0 0.0 0.00 0.00 0.00 84 1016.7
20260510122757 55 329 0.0 0.0 0.00 0.00 0.00 84 1016.5
20260510121756 55 329 0.0 0.0 0.00 0.00 0.00 83 1016.6
20260510120755 56 329 0.0 0.0 0.00 0.00 0.00 83 1016.5
20260510115754 56 329 0.0 0.0 0.00 0.00 0.00 83 1016.5
20260510114753 56 329 0.0 0.0 0.00 0.00 0.00 83 1016.4
20260510113752 56 329 0.0 0.0 0.00 0.00 0.00 83 1016.1
20260510112751 56 329 0.0 0.0 0.00 0.00 0.00 83 1016.3
20260510111750 56 329 0.0 0.0 0.00 0.00 0.00 82 1016.3
20260510110749 57 329 0.0 0.0 0.00 0.00 0.00 82 1015.9
20260510105748 57 329 0.0 0.0 0.00 0.00 0.00 83 1016.0
20260510104747 57 326 2.0 0.0 0.00 0.00 0.00 83 1015.9
20260510103746 57 330 0.0 0.0 0.00 0.00 0.00 83 1015.7
20260510102745 57 332 0.0 0.0 0.00 0.00 0.00 82 1015.4
20260510100743 58 332 0.0 0.0 0.00 0.00 0.00 79 1015.1
20260510095741 58 332 0.0 0.0 0.00 0.00 0.00 79 1014.8
20260510094741 58 332 0.0 0.0 0.00 0.00 0.00 80 1014.8
20260510092739 58 332 0.0 0.0 0.00 0.00 0.00 78 1015.0
20260510091737 58 332 0.0 0.0 0.00 0.00 0.00 77 1015.0
20260510090736 59 332 0.0 0.0 0.00 0.00 0.00 76 1014.9
20260510085735 59 332 0.0 0.0 0.00 0.00 0.00 75 1014.8
20260510084735 60 332 0.0 0.0 0.00 0.00 0.00 75 1014.8
20260510083734 60 332 0.0 0.0 0.00 0.00 0.00 74 1014.5
20260510082732 60 332 0.0 0.0 0.00 0.00 0.00 73 1014.5
20260510080730 61 332 0.0 0.0 0.00 0.00 0.00 72 1014.4
20260510075729 61 332 0.0 0.0 0.00 0.00 0.00 71 1014.5
20260510074728 62 332 0.0 0.0 0.00 0.00 0.00 70 1014.5
20260510072727 62 332 0.0 0.0 0.00 0.00 0.00 68 1014.4
20260510071725 63 332 0.0 0.0 0.00 0.00 0.00 67 1014.4
20260510070725 64 332 0.0 0.0 0.00 0.00 0.00 65 1014.4
20260510064723 65 332 0.0 0.0 0.00 0.00 0.00 63 1014.3
20260510061719 66 332 0.0 0.0 0.00 0.00 0.00 58 1014.2
20260510060718 66 332 0.0 0.0 0.00 0.00 0.00 58 1014.2
20260510055717 67 333 4.0 0.0 0.00 0.00 0.00 57 1014.2
20260510054716 67 320 0.0 0.0 0.00 0.00 0.00 57 1014.1
20260510053715 68 320 0.0 0.0 0.00 0.00 0.00 56 1014.1
20260510052714 68 320 0.0 0.0 0.00 0.00 0.00 56 1014.0
20260510050712 68 326 3.0 0.0 0.00 0.00 0.00 55 1014.2
20260510045711 69 323 0.0 0.0 0.00 0.00 0.00 55 1014.1
20260510043709 69 319 2.0 0.0 0.00 0.00 0.00 55 1013.9
20260510042708 69 342 0.0 0.0 0.00 0.00 0.00 54 1013.8
20260510041707 70 336 1.0 0.0 0.00 0.00 0.00 54 1013.6
20260510040706 70 312 0.0 0.0 0.00 0.00 0.00 53 1013.5
20260510035705 70 315 0.0 0.0 0.00 0.00 0.00 52 1013.3
20260510034704 70 315 2.0 0.0 0.00 0.00 0.00 51 1013.2
20260510033703 71 323 8.0 0.0 0.00 0.00 0.00 50 1013.2
20260510032702 71 330 0.0 0.0 0.00 0.00 0.00 49 1013.2
20260510030700 72 321 0.0 0.0 0.00 0.00 0.00 47 1013.1
20260510024658 73 311 0.0 0.0 0.00 0.00 0.00 46 1013.1
20260510023657 74 319 0.0 0.0 0.00 0.00 0.00 45 1013.1
20260510021655 75 318 0.0 0.0 0.00 0.00 0.00 43 1013.2
20260510020654 75 320 4.0 0.0 0.00 0.00 0.00 41 1013.1
20260510015653 76 319 0.0 0.0 0.00 0.00 0.00 40 1013.1
20260510014652 76 330 0.0 0.0 0.00 0.00 0.00 36 1013.2
20260510013651 77 317 1.0 0.0 0.00 0.00 0.00 34 1013.3
20260510012650 78 314 3.0 0.0 0.00 0.00 0.00 35 1013.4
20260510011649 78 318 3.0 0.0 0.00 0.00 0.00 36 1013.5
20260510010648 79 323 3.0 0.0 0.00 0.00 0.00 33 1013.5
20260510005647 80 329 3.0 0.0 0.00 0.00 0.00 34 1013.5
20260510004646 80 297 0.0 0.0 0.00 0.00 0.00 30 1013.6
20260510003645 82 313 0.0 0.0 0.00 0.00 0.00 27 1013.6
20260510001643 84 320 3.0 0.0 0.00 0.00 0.00 24 1013.7
20260510000642 85 325 0.0 0.0 0.00 0.00 0.00 24 1013.6
20260509235641 85 13 0.0 0.0 0.00 0.00 0.00 24 1013.8
20260509234640 85 320 0.0 0.0 0.00 0.00 0.00 26 1013.9
20260509233639 84 322 0.0 0.0 0.00 0.00 0.00 27 1014.0
20260509232638 84 345 0.0 0.0 0.00 0.00 0.00 28 1014.0
20260509230636 83 342 0.0 0.0 0.00 0.00 0.00 30 1014.2
20260509225635 83 327 1.0 0.0 0.00 0.00 0.00 29 1014.6